When you browse on this site, cookies collect data to enhance your experience and personalize the content and advertising you see.
Visit our Privacy Policy to learn more. By continuing to use the site, you agree to this use of cookies and data.
  • Em Portugal
  • Lista de países
  • Para 7 dias
  • Temperatura da água
  • Mapas de satélite
  • Mapa do tempo
  • Widgets de tempo
  • user-avatar
    Iniciar Sessão

    Previsão horária em Annaba

    Hoje, 17 Janeiro, Quinta-feira

    Tempo Temperatura Precipitação Vento Pressão Humidade
    00:00 +10°C° 0 mm 2 m/s 762 mmHg 69%
    01:00 +9°C° 0 mm 2 m/s 762 mmHg 68%
    02:00 +9°C° 0 mm 2 m/s 762 mmHg 67%
    03:00 +9°C° 0 mm 2 m/s 762 mmHg 67%
    04:00 +9°C° 0 mm 2 m/s 761 mmHg 66%
    05:00 +9°C° 0 mm 2 m/s 761 mmHg 67%
    06:00 +8°C° 0 mm 2 m/s 761 mmHg 67%
    07:00 +8°C° 0 mm 2 m/s 761 mmHg 67%
    08:00 +10°C° 0 mm 2 m/s 761 mmHg 64%
    09:00 +12°C° 0 mm 2 m/s 761 mmHg 62%
    10:00 +13°C° 0 mm 2 m/s 761 mmHg 59%
    11:00 +15°C° 0 mm 1 m/s 761 mmHg 54%
    12:00 +16°C° 0 mm 1 m/s 760 mmHg 48%
    13:00 +18°C° 0 mm 1 m/s 760 mmHg 43%
    14:00 +18°C° 0 mm 1 m/s 760 mmHg 45%
    15:00 +18°C° 0 mm 1 m/s 760 mmHg 48%
    16:00 +18°C° 0 mm 1 m/s 759 mmHg 51%
    17:00 +15°C° 0 mm 1 m/s 759 mmHg 57%
    18:00 +13°C° 0 mm 1 m/s 759 mmHg 63%
    19:00 +10°C° 0 mm 0 m/s 760 mmHg 69%
    20:00 +11°C° 0 mm 1 m/s 760 mmHg 70%
    21:00 +11°C° 0 mm 1 m/s 760 mmHg 71%
    22:00 +10°C° 0 mm 1 m/s 760 mmHg 73%
    23:00 +9°C° 0 mm 2 m/s 760 mmHg 72%

    Amanhã, 18 Janeiro, Sexta-feira

    Tempo Temperatura Precipitação Vento Pressão Humidade
    00:00 +9°C° 0 mm 2 m/s 760 mmHg 72%
    01:00 +9°C° 0 mm 2 m/s 760 mmHg 72%
    02:00 +9°C° 0 mm 2 m/s 760 mmHg 71%
    03:00 +8°C° 0 mm 2 m/s 759 mmHg 70%
    04:00 +8°C° 0 mm 2 m/s 759 mmHg 70%
    05:00 +8°C° 0 mm 3 m/s 759 mmHg 69%
    06:00 +8°C° 0 mm 3 m/s 759 mmHg 68%
    07:00 +8°C° 0 mm 3 m/s 759 mmHg 67%
    08:00 +10°C° 0 mm 3 m/s 759 mmHg 65%
    09:00 +11°C° 0 mm 3 m/s 760 mmHg 62%
    10:00 +13°C° 0 mm 3 m/s 760 mmHg 59%
    11:00 +14°C° 0.1 mm 4 m/s 760 mmHg 59%
    12:00 +14°C° 0.1 mm 4 m/s 760 mmHg 60%
    13:00 +15°C° 0.1 mm 5 m/s 759 mmHg 60%
    14:00 +15°C° 1.1 mm 4 m/s 759 mmHg 66%
    15:00 +14°C° 1.1 mm 4 m/s 759 mmHg 72%
    16:00 +13°C° 1.1 mm 3 m/s 759 mmHg 78%
    17:00 +12°C° 1 mm 3 m/s 759 mmHg 81%
    18:00 +13°C° 1 mm 2 m/s 760 mmHg 84%
    19:00 +12°C° 1 mm 2 m/s 760 mmHg 87%
    20:00 +12°C° 0.4 mm 2 m/s 761 mmHg 87%
    21:00 +11°C° 0.4 mm 1 m/s 761 mmHg 88%
    22:00 +11°C° 0.4 mm 1 m/s 761 mmHg 88%
    23:00 +11°C° 0.1 mm 1 m/s 761 mmHg 89%

    Depois de amanhã, 19 Janeiro, Sábado

    Tempo Temperatura Precipitação Vento Pressão Humidade
    00:00 +10°C° 0.1 mm 1 m/s 761 mmHg 90%
    01:00 +9°C° 0.1 mm 2 m/s 761 mmHg 91%
    02:00 +9°C° 0.1 mm 2 m/s 761 mmHg 91%
    03:00 +9°C° 0.1 mm 2 m/s 761 mmHg 92%
    04:00 +9°C° 0.1 mm 2 m/s 761 mmHg 92%
    05:00 +9°C° 0.1 mm 2 m/s 761 mmHg 92%
    06:00 +8°C° 0.1 mm 2 m/s 761 mmHg 92%
    07:00 +9°C° 0.1 mm 1 m/s 761 mmHg 91%
    08:00 +9°C° 0 mm 2 m/s 761 mmHg 87%
    09:00 +10°C° 0 mm 2 m/s 761 mmHg 83%
    10:00 +12°C° 0 mm 2 m/s 761 mmHg 78%
    11:00 +13°C° 0.2 mm 2 m/s 761 mmHg 75%
    12:00 +13°C° 0.2 mm 3 m/s 760 mmHg 71%
    13:00 +13°C° 0.2 mm 3 m/s 760 mmHg 68%
    14:00 +13°C° 0.1 mm 4 m/s 760 mmHg 68%
    15:00 +13°C° 0.1 mm 4 m/s 759 mmHg 69%
    16:00 +13°C° 0.1 mm 5 m/s 759 mmHg 69%
    17:00 +12°C° 0.1 mm 4 m/s 760 mmHg 73%
    18:00 +11°C° 0.1 mm 4 m/s 760 mmHg 77%
    19:00 +10°C° 0.1 mm 3 m/s 760 mmHg 81%
    20:00 +9°C° 0.1 mm 3 m/s 760 mmHg 81%
    21:00 +9°C° 0.1 mm 3 m/s 761 mmHg 82%
    22:00 +9°C° 0.1 mm 3 m/s 761 mmHg 82%
    23:00 +8°C° 0 mm 3 m/s 761 mmHg 81%

    20 Janeiro, Domingo

    Tempo Temperatura Precipitação Vento Pressão Humidade
    00:00 +8°C° 0 mm 3 m/s 760 mmHg 79%
    01:00 +8°C° 0 mm 3 m/s 760 mmHg 78%
    02:00 +8°C° 0 mm 3 m/s 760 mmHg 78%
    03:00 +8°C° 0 mm 3 m/s 760 mmHg 78%
    04:00 +7°C° 0 mm 2 m/s 759 mmHg 77%
    05:00 +7°C° 0 mm 2 m/s 759 mmHg 78%
    06:00 +7°C° 0 mm 2 m/s 759 mmHg 78%
    07:00 +7°C° 0 mm 3 m/s 759 mmHg 78%
    08:00 +9°C° 0 mm 3 m/s 759 mmHg 74%
    09:00 +10°C° 0 mm 3 m/s 759 mmHg 70%
    10:00 +12°C° 0 mm 3 m/s 759 mmHg 66%
    11:00 +13°C° 0 mm 3 m/s 758 mmHg 60%
    12:00 +16°C° 0 mm 3 m/s 758 mmHg 54%
    13:00 +17°C° 0 mm 3 m/s 757 mmHg 48%
    14:00 +17°C° 0.1 mm 2 m/s 757 mmHg 50%
    15:00 +18°C° 0.1 mm 1 m/s 757 mmHg 52%
    16:00 +18°C° 0.1 mm 1 m/s 756 mmHg 54%
    17:00 +16°C° 0.1 mm 1 m/s 756 mmHg 62%
    18:00 +14°C° 0.1 mm 2 m/s 757 mmHg 69%
    19:00 +13°C° 0.1 mm 2 m/s 757 mmHg 77%
    20:00 +12°C° 0.1 mm 2 m/s 757 mmHg 80%
    21:00 +12°C° 0.1 mm 1 m/s 757 mmHg 84%
    22:00 +11°C° 0.1 mm 0 m/s 757 mmHg 88%
    23:00 +11°C° 0.2 mm 1 m/s 757 mmHg 88%

    21 Janeiro, Segunda-feira

    Tempo Temperatura Precipitação Vento Pressão Humidade
    00:00 +11°C° 0.2 mm 1 m/s 757 mmHg 88%
    01:00 +10°C° 0.2 mm 2 m/s 757 mmHg 87%
    02:00 +10°C° 0 mm 2 m/s 757 mmHg 86%
    03:00 +10°C° 0 mm 2 m/s 756 mmHg 85%
    04:00 +9°C° 0 mm 2 m/s 756 mmHg 83%
    05:00 +9°C° 0.1 mm 2 m/s 756 mmHg 83%
    06:00 +9°C° 0.1 mm 3 m/s 756 mmHg 82%
    07:00 +9°C° 0.1 mm 3 m/s 756 mmHg 82%
    08:00 +10°C° 1.8 mm 4 m/s 757 mmHg 84%
    09:00 +10°C° 1.8 mm 4 m/s 757 mmHg 86%
    10:00 +10°C° 1.8 mm 5 m/s 758 mmHg 88%
    11:00 +10°C° 1.8 mm 6 m/s 758 mmHg 86%
    12:00 +11°C° 1.8 mm 7 m/s 758 mmHg 85%
    13:00 +11°C° 1.8 mm 8 m/s 759 mmHg 83%
    14:00 +11°C° 0.5 mm 8 m/s 759 mmHg 81%
    15:00 +11°C° 0.5 mm 8 m/s 759 mmHg 79%
    16:00 +11°C° 0.5 mm 8 m/s 759 mmHg 77%
    17:00 +10°C° 0.4 mm 7 m/s 759 mmHg 79%
    18:00 +9°C° 0.4 mm 7 m/s 759 mmHg 81%
    19:00 +9°C° 0.4 mm 6 m/s 760 mmHg 83%
    20:00 +8°C° 0.3 mm 6 m/s 760 mmHg 83%
    21:00 +8°C° 0.3 mm 6 m/s 760 mmHg 82%
    22:00 +8°C° 0.3 mm 6 m/s 761 mmHg 82%
    23:00 +8°C° 0.4 mm 6 m/s 760 mmHg 82%

    22 Janeiro, Terça-feira

    Tempo Temperatura Precipitação Vento Pressão Humidade
    00:00 +8°C° 0.4 mm 6 m/s 760 mmHg 83%
    01:00 +8°C° 0.4 mm 6 m/s 760 mmHg 83%
    02:00 +7°C° 0.3 mm 6 m/s 760 mmHg 83%
    03:00 +7°C° 0.3 mm 6 m/s 760 mmHg 84%
    04:00 +7°C° 0.3 mm 5 m/s 760 mmHg 84%
    05:00 +7°C° 0.3 mm 5 m/s 759 mmHg 85%
    06:00 +6°C° 0.3 mm 5 m/s 759 mmHg 86%
    07:00 +6°C° 0.3 mm 4 m/s 759 mmHg 87%
    08:00 +7°C° 0.2 mm 4 m/s 759 mmHg 84%
    09:00 +8°C° 0.2 mm 4 m/s 759 mmHg 81%
    10:00 +10°C° 0.2 mm 4 m/s 759 mmHg 78%
    11:00 +11°C° 0.2 mm 4 m/s 758 mmHg 72%
    12:00 +12°C° 0.2 mm 3 m/s 757 mmHg 67%
    13:00 +12°C° 0.2 mm 3 m/s 756 mmHg 62%
    14:00 +13°C° 0 mm 3 m/s 755 mmHg 58%
    15:00 +15°C° 0 mm 2 m/s 755 mmHg 55%
    16:00 +15°C° 0 mm 2 m/s 754 mmHg 51%
    17:00 +14°C° 0 mm 2 m/s 753 mmHg 56%
    18:00 +12°C° 0 mm 1 m/s 753 mmHg 60%
    19:00 +11°C° 0 mm 1 m/s 753 mmHg 65%
    20:00 +10°C° 0 mm 2 m/s 752 mmHg 63%
    21:00 +9°C° 0 mm 3 m/s 751 mmHg 62%
    22:00 +8°C° 0 mm 4 m/s 751 mmHg 60%
    23:00 +8°C° 0 mm 5 m/s 750 mmHg 59%
    Mostrar mais